Погода в Возрождении

Россия / Санкт-Петербург и Ленинградская область     60°51′38″N   28°57′50″E
темп.,
°C
ветер,
м/с
пор.,
м/с
влажн.,
%
обл.,
%
осадки,
мм/ч
давл.,
гПа
погр.,
м
2 марта, вт
вт200:00+1з4128770 0.1 1011604
03:00−1з4118635 0.1 1011435
06:00−1з411890 0.0 1010477
09:00−1зсз412870 0.0 1011659
12:00+1сз611760 0.0 1013781
15:00+2сз611740 0.0 10151063
18:00+1сз3128024 0.0 1017739
21:00−1зсз3128512 0.0 1018512
3 марта, ср
ср300:00−2зсз311870 0.0 1018428
03:00−2з412880 0.0 1018478
06:00−2зсз411900 0.0 1016433
09:00−2зсз410925 0.0 1016446
12:00+1з488360 0.0 1014577
15:00+2зюз498280 0.0 1012602
18:00+1юз51283100 0.0 1006774
21:00+2зюз51487100 0.0 1002843
4 марта, чт
чт400:00+2з51289100 0.1 1000772
03:00−1сз41270100 0.8 1000761
06:00−3сз411760 0.0 999631
09:00−4сз511770 0.0 1000719
12:00−4ссз597569 0.0 1001769
15:00−3ссз587384 0.1 10031063
18:00−3ссз4870100 0.1 10031191
21:00−5ссз287983 0.1 1005719
5 марта, пт
пт500:00−6ссз378099 0.1 1005828
03:00−7сз388066 0.1 1006488
06:00−8сз28850 0.0 1006491
09:00−7сз378744 0.1 1007577
12:00−5ссз3677100 0.1 1009803
15:00−5с5765100 0.3 10101186
18:00−7с476233 0.0 10121048
21:00−9ссв377217 0.0 1013612
6 марта, сб
сб600:00−10ссз12802 0.0 101585
03:00−9з138047 0.0 1015134
06:00−10з239324 0.0 101485
09:00−9зюз258912 0.0 1013205
12:00−6юз467211 0.0 1011508
15:00−5юз596834 0.0 1008772
18:00−5ююз51072100 0.0 1003838
21:00−5ю51269100 0.0 997709